Location: lozzo di cadore
(46.4899°N, 12.4508°E)
Time: 22:09:31
(UTC+01:00)

X-37B - Visible Passes

Search period start: 15 January 2021 00:00
Search period end: 25 January 2021 00:00
Orbit: 384 x 390 km, 45.0° (Epoch: 02 January)

Date Brightness Start Highest point End Pass type
(mag) Time Alt. Az. Time Alt. Az. Time Alt. Az.
18 Jan 2.9 18:51:04 10° SSW 18:52:19 15° S 18:52:19 15° S visible
19 Jan 3.1 17:54:14 10° SSE 17:55:03 11° SE 17:55:53 10° SE visible
19 Jan 3.3 19:28:05 10° SW 19:28:57 16° SW 19:28:57 16° SW visible
20 Jan 1.9 18:30:00 10° SW 18:32:44 26° SSE 18:33:14 25° SE visible
21 Jan 2.7 17:32:14 10° SSW 17:34:26 17° SSE 17:36:39 10° ESE visible
21 Jan 1.9 19:07:32 10° WSW 19:09:46 37° SW 19:09:46 37° SW visible
22 Jan 1.5 18:09:15 10° SW 18:12:14 38° SSE 18:13:59 20° ESE visible
22 Jan 3.7 19:45:31 10° W 19:46:16 16° W 19:46:16 16° W visible
23 Jan 0.7 18:47:05 10° WSW 18:50:14 63° S 18:50:28 61° SSE visible
24 Jan 1.1 17:48:42 10° WSW 17:51:48 52° SSE 17:54:39 12° E visible
24 Jan 2.5 19:25:09 10° W 19:26:56 30° W 19:26:56 30° W visible
